Year,Month,Day,Hour,Minute,Value (Times are PST for temperature in C)
2009,06,04,00,00,17.60
2009,06,04,00,01,17.60
2009,06,04,00,02,17.50
2009,06,04,00,03,17.50
2009,06,04,00,04,17.50
2009,06,04,00,05,17.40
2009,06,04,00,06,17.40
2009,06,04,00,07,17.30
2009,06,04,00,08,17.30
2009,06,04,00,09,17.30
2009,06,04,00,10,17.30
2009,06,04,00,11,17.20
2009,06,04,00,12,17.20
2009,06,04,00,13,17.10
2009,06,04,00,14,17.10
2009,06,04,00,15,17.10
2009,06,04,00,16,17.10
2009,06,04,00,17,17.00
2009,06,04,00,18,17.00
2009,06,04,00,19,17.00
2009,06,04,00,20,17.00
2009,06,04,00,21,17.00
2009,06,04,00,22,16.90
2009,06,04,00,23,16.90
2009,06,04,00,24,16.90
2009,06,04,00,25,16.90
2009,06,04,00,26,16.90
2009,06,04,00,27,16.90
2009,06,04,00,28,16.90
2009,06,04,00,29,16.80
2009,06,04,00,30,16.80
2009,06,04,00,31,16.80
2009,06,04,00,32,16.80
2009,06,04,00,33,16.70
2009,06,04,00,34,16.70
2009,06,04,00,35,16.70
2009,06,04,00,36,16.70
2009,06,04,00,37,16.70
2009,06,04,00,38,16.70
2009,06,04,00,39,16.70
2009,06,04,00,40,16.70
2009,06,04,00,41,16.70
2009,06,04,00,42,16.70
2009,06,04,00,43,16.70
2009,06,04,00,44,16.70
2009,06,04,00,45,16.70
2009,06,04,00,46,16.70
2009,06,04,00,47,16.70
2009,06,04,00,48,16.70
2009,06,04,00,49,16.70
2009,06,04,00,50,16.70
2009,06,04,00,51,16.70
2009,06,04,00,52,16.70
2009,06,04,00,53,16.70
2009,06,04,00,54,16.70
2009,06,04,00,55,16.70
2009,06,04,00,56,16.70
2009,06,04,00,57,16.70
2009,06,04,00,58,16.70
2009,06,04,00,59,16.70
2009,06,04,01,00,16.70
2009,06,04,01,01,16.70
2009,06,04,01,02,16.70
2009,06,04,01,03,16.70
2009,06,04,01,04,16.60
2009,06,04,01,05,16.60
2009,06,04,01,06,16.60
2009,06,04,01,07,16.40
2009,06,04,01,08,16.40
2009,06,04,01,09,16.40
2009,06,04,01,10,16.40
2009,06,04,01,11,16.30
2009,06,04,01,12,16.30
2009,06,04,01,13,16.30
2009,06,04,01,14,16.20
2009,06,04,01,15,16.20
2009,06,04,01,16,16.20
2009,06,04,01,17,16.20
2009,06,04,01,18,16.20
2009,06,04,01,19,16.10
2009,06,04,01,20,16.10
2009,06,04,01,21,16.10
2009,06,04,01,22,16.10
2009,06,04,01,23,16.10
2009,06,04,01,24,16.00
2009,06,04,01,25,15.90
2009,06,04,01,26,15.90
2009,06,04,01,27,15.80
2009,06,04,01,28,15.80
2009,06,04,01,29,15.80
2009,06,04,01,30,15.80
2009,06,04,01,31,15.80
2009,06,04,01,32,15.80
2009,06,04,01,33,15.80
2009,06,04,01,34,15.80
2009,06,04,01,35,15.80
2009,06,04,01,36,15.70
2009,06,04,01,37,15.70
2009,06,04,01,38,15.60
2009,06,04,01,39,15.60
2009,06,04,01,40,15.60
2009,06,04,01,41,15.60
2009,06,04,01,42,15.50
2009,06,04,01,43,15.50
2009,06,04,01,44,15.50
2009,06,04,01,45,15.50
2009,06,04,01,46,15.50
2009,06,04,01,47,15.50
2009,06,04,01,48,15.40
2009,06,04,01,49,15.40
2009,06,04,01,50,15.40
2009,06,04,01,51,15.30
2009,06,04,01,52,15.30
2009,06,04,01,53,15.30
2009,06,04,01,54,15.30
2009,06,04,01,55,15.30
2009,06,04,01,56,15.30
2009,06,04,01,57,15.20
2009,06,04,01,58,15.20
2009,06,04,01,59,15.20
2009,06,04,02,00,15.20
2009,06,04,02,01,15.10
2009,06,04,02,02,15.10
2009,06,04,02,03,15.10
2009,06,04,02,04,15.10
2009,06,04,02,05,15.10
2009,06,04,02,06,15.10
2009,06,04,02,07,15.10
2009,06,04,02,08,15.10
2009,06,04,02,09,15.10
2009,06,04,02,10,15.10
2009,06,04,02,11,15.10
2009,06,04,02,12,15.00
2009,06,04,02,13,15.00
2009,06,04,02,14,15.00
2009,06,04,02,15,15.00
2009,06,04,02,16,15.00
2009,06,04,02,17,15.00
2009,06,04,02,18,15.00
2009,06,04,02,19,14.90
2009,06,04,02,20,14.90
2009,06,04,02,21,14.90
2009,06,04,02,22,14.90
2009,06,04,02,23,14.80
2009,06,04,02,24,14.80
2009,06,04,02,25,14.80
2009,06,04,02,26,14.80
2009,06,04,02,27,14.80
2009,06,04,02,28,14.80
2009,06,04,02,29,14.80
2009,06,04,02,30,14.80
2009,06,04,02,31,14.80
2009,06,04,02,32,14.80
2009,06,04,02,33,14.80
2009,06,04,02,34,14.80
2009,06,04,02,35,14.80
2009,06,04,02,36,14.90
2009,06,04,02,37,14.90
2009,06,04,02,38,14.90
2009,06,04,02,39,15.00
2009,06,04,02,40,15.00
2009,06,04,02,41,15.00
2009,06,04,02,42,15.00
2009,06,04,02,43,15.00
2009,06,04,02,44,15.10
2009,06,04,02,45,15.10
2009,06,04,02,46,15.10
2009,06,04,02,47,15.10
2009,06,04,02,48,15.20
2009,06,04,02,49,15.20
2009,06,04,02,50,15.20
2009,06,04,02,51,15.20
2009,06,04,02,52,15.20
2009,06,04,02,53,15.20
2009,06,04,02,54,15.20
2009,06,04,02,55,15.20
2009,06,04,02,56,15.20
2009,06,04,02,57,15.20
2009,06,04,02,58,15.20
2009,06,04,02,59,15.20
2009,06,04,03,00,15.20
2009,06,04,03,01,15.10
2009,06,04,03,02,15.10
2009,06,04,03,03,15.10
2009,06,04,03,04,15.00
2009,06,04,03,05,15.00
2009,06,04,03,06,15.00
2009,06,04,03,07,14.90
2009,06,04,03,08,14.90
2009,06,04,03,09,14.90
2009,06,04,03,10,14.80
2009,06,04,03,11,14.80
2009,06,04,03,12,14.80
2009,06,04,03,13,14.80
2009,06,04,03,14,14.80
2009,06,04,03,15,14.80
2009,06,04,03,16,14.80
2009,06,04,03,17,14.80
2009,06,04,03,18,14.70
2009,06,04,03,19,14.70
2009,06,04,03,20,14.70
2009,06,04,03,21,14.60
2009,06,04,03,22,14.60
2009,06,04,03,23,14.60
2009,06,04,03,24,14.60
2009,06,04,03,25,14.60
2009,06,04,03,26,14.60
2009,06,04,03,27,14.60
2009,06,04,03,28,14.60
2009,06,04,03,29,14.60
2009,06,04,03,30,14.60
2009,06,04,03,31,14.60
2009,06,04,03,32,14.60
2009,06,04,03,33,14.60
2009,06,04,03,34,14.50
2009,06,04,03,35,14.50
2009,06,04,03,36,14.50
2009,06,04,03,37,14.40
2009,06,04,03,38,14.40
2009,06,04,03,39,14.30
2009,06,04,03,40,14.30
2009,06,04,03,41,14.30
2009,06,04,03,42,14.30
2009,06,04,03,43,14.20
2009,06,04,03,44,14.20
2009,06,04,03,45,14.20
2009,06,04,03,46,14.20
2009,06,04,03,47,14.20
2009,06,04,03,48,14.20
2009,06,04,03,49,14.20
2009,06,04,03,50,14.20
2009,06,04,03,51,14.20
2009,06,04,03,52,14.20
2009,06,04,03,53,14.20
2009,06,04,03,54,14.20
2009,06,04,03,55,14.20
2009,06,04,03,56,14.20
2009,06,04,03,57,14.10
2009,06,04,03,58,14.10
2009,06,04,03,59,14.00
2009,06,04,04,00,14.00
2009,06,04,04,01,14.00
2009,06,04,04,02,13.90
2009,06,04,04,03,13.90
2009,06,04,04,04,13.80
2009,06,04,04,05,13.80
2009,06,04,04,06,13.70
2009,06,04,04,07,13.70
2009,06,04,04,08,13.70
2009,06,04,04,09,13.70
2009,06,04,04,10,13.70
2009,06,04,04,11,13.60
2009,06,04,04,12,13.60
2009,06,04,04,13,13.60
2009,06,04,04,14,13.50
2009,06,04,04,15,13.50
2009,06,04,04,16,13.50
2009,06,04,04,17,13.50
2009,06,04,04,18,13.50
2009,06,04,04,19,13.50
2009,06,04,04,20,13.60
2009,06,04,04,21,13.60
2009,06,04,04,22,13.60
2009,06,04,04,23,13.60
2009,06,04,04,24,13.60
2009,06,04,04,25,13.50
2009,06,04,04,26,13.50
2009,06,04,04,27,13.50
2009,06,04,04,28,13.50
2009,06,04,04,29,13.50
2009,06,04,04,30,13.50
2009,06,04,04,31,13.40
2009,06,04,04,32,13.40
2009,06,04,04,33,13.40
2009,06,04,04,34,13.40
2009,06,04,04,35,13.40
2009,06,04,04,36,13.30
2009,06,04,04,37,13.30
2009,06,04,04,38,13.30
2009,06,04,04,39,13.30
2009,06,04,04,40,13.30
2009,06,04,04,41,13.30
2009,06,04,04,42,13.30
2009,06,04,04,43,13.30
2009,06,04,04,44,13.30
2009,06,04,04,45,13.30
2009,06,04,04,46,13.30
2009,06,04,04,47,13.30
2009,06,04,04,48,13.30
2009,06,04,04,49,13.30
2009,06,04,04,50,13.30
2009,06,04,04,51,13.30
2009,06,04,04,52,13.30
2009,06,04,04,53,13.30
2009,06,04,04,54,13.30
2009,06,04,04,55,13.30
2009,06,04,04,56,13.30
2009,06,04,04,57,13.30
2009,06,04,04,58,13.30
2009,06,04,04,59,13.30
2009,06,04,05,00,13.30
2009,06,04,05,01,13.30
2009,06,04,05,02,13.30
2009,06,04,05,03,13.30
2009,06,04,05,04,13.30
2009,06,04,05,05,13.30
2009,06,04,05,06,13.30
2009,06,04,05,07,13.30
2009,06,04,05,08,13.30
2009,06,04,05,09,13.30
2009,06,04,05,10,13.30
2009,06,04,05,11,13.30
2009,06,04,05,12,13.30
2009,06,04,05,13,13.30
2009,06,04,05,14,13.30
2009,06,04,05,15,13.30
2009,06,04,05,16,13.30
2009,06,04,05,17,13.40
2009,06,04,05,18,13.40
2009,06,04,05,19,13.40
2009,06,04,05,20,13.40
2009,06,04,05,21,13.40
2009,06,04,05,22,13.40
2009,06,04,05,23,13.40
2009,06,04,05,24,13.50
2009,06,04,05,25,13.50
2009,06,04,05,26,13.50
2009,06,04,05,27,13.50
2009,06,04,05,28,13.50
2009,06,04,05,29,13.50
2009,06,04,05,30,13.50
2009,06,04,05,31,13.50
2009,06,04,05,32,13.50
2009,06,04,05,33,13.50
2009,06,04,05,34,13.50
2009,06,04,05,35,13.60
2009,06,04,05,36,13.60
2009,06,04,05,37,13.60
2009,06,04,05,38,13.60
2009,06,04,05,39,13.60
2009,06,04,05,40,13.70
2009,06,04,05,41,13.70
2009,06,04,05,42,13.70
2009,06,04,05,43,13.70
2009,06,04,05,44,13.70
2009,06,04,05,45,13.70
2009,06,04,05,46,13.70
2009,06,04,05,47,13.70
2009,06,04,05,48,13.70
2009,06,04,05,49,13.80
2009,06,04,05,50,13.80
2009,06,04,05,51,13.80
2009,06,04,05,52,13.80
2009,06,04,05,53,13.80
2009,06,04,05,54,13.90
2009,06,04,05,55,13.90
2009,06,04,05,56,13.90
2009,06,04,05,57,13.90
2009,06,04,05,58,13.90
2009,06,04,05,59,13.90
2009,06,04,06,00,13.90
2009,06,04,06,01,14.00
2009,06,04,06,02,14.00
2009,06,04,06,03,14.00
2009,06,04,06,04,14.10
2009,06,04,06,05,14.10
2009,06,04,06,06,14.20
2009,06,04,06,07,14.20
2009,06,04,06,08,14.20
2009,06,04,06,09,14.30
2009,06,04,06,10,14.30
2009,06,04,06,11,14.40
2009,06,04,06,12,14.50
2009,06,04,06,13,14.50
2009,06,04,06,14,14.60
2009,06,04,06,15,14.70
2009,06,04,06,16,14.70
2009,06,04,06,17,14.80
2009,06,04,06,18,14.80
2009,06,04,06,19,14.90
2009,06,04,06,20,15.00
2009,06,04,06,21,15.00
2009,06,04,06,22,15.10
2009,06,04,06,23,15.10
2009,06,04,06,24,15.20
2009,06,04,06,25,15.30
2009,06,04,06,26,15.30
2009,06,04,06,27,15.40
2009,06,04,06,28,15.50
2009,06,04,06,29,15.60
2009,06,04,06,30,15.70
2009,06,04,06,31,15.80
2009,06,04,06,32,15.80
2009,06,04,06,33,15.90
2009,06,04,06,34,16.00
2009,06,04,06,35,16.10
2009,06,04,06,36,16.10
2009,06,04,06,37,16.10
2009,06,04,06,38,16.10
2009,06,04,06,39,16.10
2009,06,04,06,40,16.10
2009,06,04,06,41,16.10
2009,06,04,06,42,16.20
2009,06,04,06,43,16.20
2009,06,04,06,44,16.20
2009,06,04,06,45,16.30
2009,06,04,06,46,16.30
2009,06,04,06,47,16.40
2009,06,04,06,48,16.40
2009,06,04,06,49,16.50
2009,06,04,06,50,16.60
2009,06,04,06,51,16.70
2009,06,04,06,52,16.70
2009,06,04,06,53,16.80
2009,06,04,06,54,16.80
2009,06,04,06,55,16.90
2009,06,04,06,56,17.00
2009,06,04,06,57,17.00
2009,06,04,06,58,17.10
2009,06,04,06,59,17.20
2009,06,04,07,00,17.30
2009,06,04,07,01,17.30
2009,06,04,07,02,17.30
2009,06,04,07,03,17.40
2009,06,04,07,04,17.50
2009,06,04,07,05,17.60
2009,06,04,07,06,17.70
2009,06,04,07,07,17.80
2009,06,04,07,08,17.90
2009,06,04,07,09,18.00
2009,06,04,07,10,18.10
2009,06,04,07,11,18.20
2009,06,04,07,12,18.20
2009,06,04,07,13,18.30
2009,06,04,07,14,18.40
2009,06,04,07,15,18.50
2009,06,04,07,16,18.50
2009,06,04,07,17,18.60
2009,06,04,07,18,18.60
2009,06,04,07,19,18.70
2009,06,04,07,20,18.80
2009,06,04,07,21,18.90
2009,06,04,07,22,18.90
2009,06,04,07,23,19.00
2009,06,04,07,24,19.10
2009,06,04,07,25,19.10
2009,06,04,07,26,19.20
2009,06,04,07,27,19.30
2009,06,04,07,28,19.40
2009,06,04,07,29,19.40
2009,06,04,07,30,19.50
2009,06,04,07,31,19.60
2009,06,04,07,32,19.70
2009,06,04,07,33,19.80
2009,06,04,07,34,19.90
2009,06,04,07,35,20.00
2009,06,04,07,36,20.10
2009,06,04,07,37,20.20
2009,06,04,07,38,20.20
2009,06,04,07,39,20.30
2009,06,04,07,40,20.30
2009,06,04,07,41,20.40
2009,06,04,07,42,20.40
2009,06,04,07,43,20.40
2009,06,04,07,44,20.50
2009,06,04,07,45,20.50
2009,06,04,07,46,20.40
2009,06,04,07,47,20.40
2009,06,04,07,48,20.40
2009,06,04,07,49,20.30
2009,06,04,07,50,20.40
2009,06,04,07,51,20.40
2009,06,04,07,52,20.40
2009,06,04,07,53,20.50
2009,06,04,07,54,20.50
2009,06,04,07,55,20.60
2009,06,04,07,56,20.70
2009,06,04,07,57,20.70
2009,06,04,07,58,20.80
2009,06,04,07,59,20.90
2009,06,04,08,00,20.90
2009,06,04,08,01,21.00
2009,06,04,08,02,21.10
2009,06,04,08,03,21.20
2009,06,04,08,04,21.20
2009,06,04,08,05,21.30
2009,06,04,08,06,21.30
2009,06,04,08,07,21.40
2009,06,04,08,08,21.40
2009,06,04,08,09,21.50
2009,06,04,08,10,21.60
2009,06,04,08,11,21.60
2009,06,04,08,12,21.60
2009,06,04,08,13,21.70
2009,06,04,08,14,21.80
2009,06,04,08,15,21.80
2009,06,04,08,16,22.00
2009,06,04,08,17,22.00
2009,06,04,08,18,22.10
2009,06,04,08,19,22.20
2009,06,04,08,20,22.30
2009,06,04,08,21,22.30
2009,06,04,08,22,22.40
2009,06,04,08,23,22.40
2009,06,04,08,24,22.40
2009,06,04,08,25,22.40
2009,06,04,08,26,22.50
2009,06,04,08,27,22.50
2009,06,04,08,28,22.60
2009,06,04,08,29,22.70
2009,06,04,08,30,22.80
2009,06,04,08,31,22.90
2009,06,04,08,32,23.00
2009,06,04,08,33,23.10
2009,06,04,08,34,23.20
2009,06,04,08,35,23.20
2009,06,04,08,36,23.30
2009,06,04,08,37,23.30
2009,06,04,08,38,23.30
2009,06,04,08,39,23.30
2009,06,04,08,40,23.30
2009,06,04,08,41,23.30
2009,06,04,08,42,23.30
2009,06,04,08,43,23.30
2009,06,04,08,44,23.30
2009,06,04,08,45,23.30
2009,06,04,08,46,23.30
2009,06,04,08,47,23.30
2009,06,04,08,48,23.30
2009,06,04,08,49,23.30
2009,06,04,08,50,23.30
2009,06,04,08,51,23.30
2009,06,04,08,52,23.40
2009,06,04,08,53,23.40
2009,06,04,08,54,23.50
2009,06,04,08,55,23.60
2009,06,04,08,56,23.60
2009,06,04,08,57,23.70
2009,06,04,08,58,23.70
2009,06,04,08,59,23.70
2009,06,04,09,00,23.70
2009,06,04,09,01,23.70
2009,06,04,09,02,23.70
2009,06,04,09,03,23.80
2009,06,04,09,04,23.80
2009,06,04,09,05,23.90
2009,06,04,09,06,24.00
2009,06,04,09,07,24.10
2009,06,04,09,08,24.10
2009,06,04,09,09,24.10
2009,06,04,09,10,24.10
2009,06,04,09,11,24.10
2009,06,04,09,12,24.10
2009,06,04,09,13,24.10
2009,06,04,09,14,24.20
2009,06,04,09,15,24.30
2009,06,04,09,16,24.30
2009,06,04,09,17,24.40
2009,06,04,09,18,24.40
2009,06,04,09,19,24.50
2009,06,04,09,20,24.50
2009,06,04,09,21,24.60
2009,06,04,09,22,24.70
2009,06,04,09,23,24.70
2009,06,04,09,24,24.70
2009,06,04,09,25,24.60
2009,06,04,09,26,24.60
2009,06,04,09,27,24.60
2009,06,04,09,28,24.60
2009,06,04,09,29,24.60
2009,06,04,09,30,24.60
2009,06,04,09,31,24.60
2009,06,04,09,32,24.70
2009,06,04,09,33,24.70
2009,06,04,09,34,24.70
2009,06,04,09,35,24.70
2009,06,04,09,36,24.70
2009,06,04,09,37,24.70
2009,06,04,09,38,24.60
2009,06,04,09,39,24.60
2009,06,04,09,40,24.60
2009,06,04,09,41,24.60
2009,06,04,09,42,24.70
2009,06,04,09,43,24.70
2009,06,04,09,44,24.80
2009,06,04,09,45,24.80
2009,06,04,09,46,24.80
2009,06,04,09,47,24.90
2009,06,04,09,48,24.90
2009,06,04,09,49,25.00
2009,06,04,09,50,25.00
2009,06,04,09,51,24.90
2009,06,04,09,52,24.80
2009,06,04,09,53,24.70
2009,06,04,09,54,24.70
2009,06,04,09,55,24.50
2009,06,04,09,56,24.50
2009,06,04,09,57,24.50
2009,06,04,09,58,24.60
2009,06,04,09,59,24.70
2009,06,04,10,00,24.80
2009,06,04,10,01,24.80
2009,06,04,10,02,24.80
2009,06,04,10,03,24.80
2009,06,04,10,04,24.80
2009,06,04,10,05,24.80
2009,06,04,10,06,24.70
2009,06,04,10,07,24.70
2009,06,04,10,08,24.70
2009,06,04,10,09,24.80
2009,06,04,10,10,24.90
2009,06,04,10,11,24.90
2009,06,04,10,12,24.80
2009,06,04,10,13,24.90
2009,06,04,10,14,24.80
2009,06,04,10,15,24.90
2009,06,04,10,16,24.90
2009,06,04,10,17,25.00
2009,06,04,10,18,25.00
2009,06,04,10,19,25.00
2009,06,04,10,20,25.10
2009,06,04,10,21,25.20
2009,06,04,10,22,25.20
2009,06,04,10,23,25.20
2009,06,04,10,24,25.30
2009,06,04,10,25,25.30
2009,06,04,10,26,25.30
2009,06,04,10,27,25.40
2009,06,04,10,28,25.30
2009,06,04,10,29,25.30
2009,06,04,10,30,25.20
2009,06,04,10,31,25.20
2009,06,04,10,32,25.30
2009,06,04,10,33,25.30
2009,06,04,10,34,25.30
2009,06,04,10,35,25.30
2009,06,04,10,36,25.20
2009,06,04,10,37,25.10
2009,06,04,10,38,25.10
2009,06,04,10,39,25.00
2009,06,04,10,40,25.00
2009,06,04,10,41,24.90
2009,06,04,10,42,24.80
2009,06,04,10,43,24.80
2009,06,04,10,44,24.90
2009,06,04,10,45,25.00
2009,06,04,10,46,25.00
2009,06,04,10,47,25.10
2009,06,04,10,48,25.10
2009,06,04,10,49,25.20
2009,06,04,10,50,25.20
2009,06,04,10,51,25.30
2009,06,04,10,52,25.40
2009,06,04,10,53,25.40
2009,06,04,10,54,25.40
2009,06,04,10,55,25.40
2009,06,04,10,56,25.50
2009,06,04,10,57,25.60
2009,06,04,10,58,25.70
2009,06,04,10,59,25.70
2009,06,04,11,00,25.80
2009,06,04,11,01,25.80
2009,06,04,11,02,25.90
2009,06,04,11,03,25.90
2009,06,04,11,04,26.00
2009,06,04,11,05,26.00
2009,06,04,11,06,26.00
2009,06,04,11,07,26.10
2009,06,04,11,08,26.10
2009,06,04,11,09,26.20
2009,06,04,11,10,26.20
2009,06,04,11,11,26.30
2009,06,04,11,12,26.40
2009,06,04,11,13,26.30
2009,06,04,11,14,26.40
2009,06,04,11,15,26.30
2009,06,04,11,16,26.40
2009,06,04,11,17,26.40
2009,06,04,11,18,26.50
2009,06,04,11,19,26.60
2009,06,04,11,20,26.60
2009,06,04,11,21,26.60
2009,06,04,11,22,26.60
2009,06,04,11,23,26.60
2009,06,04,11,24,26.60
2009,06,04,11,25,26.60
2009,06,04,11,26,26.60
2009,06,04,11,27,26.70
2009,06,04,11,28,26.70
2009,06,04,11,29,26.80
2009,06,04,11,30,26.80
2009,06,04,11,31,26.70
2009,06,04,11,32,26.80
2009,06,04,11,33,26.80
2009,06,04,11,34,26.80
2009,06,04,11,35,26.80
2009,06,04,11,36,26.80
2009,06,04,11,37,26.90
2009,06,04,11,38,26.90
2009,06,04,11,39,26.90
2009,06,04,11,40,26.90
2009,06,04,11,41,26.90
2009,06,04,11,42,26.80
2009,06,04,11,43,26.80
2009,06,04,11,44,26.80
2009,06,04,11,45,26.70
2009,06,04,11,46,26.70
2009,06,04,11,47,26.60
2009,06,04,11,48,26.60
2009,06,04,11,49,26.60
2009,06,04,11,50,26.70
2009,06,04,11,51,26.80
2009,06,04,11,52,26.90
2009,06,04,11,53,26.90
2009,06,04,11,54,26.90
2009,06,04,11,55,27.10
2009,06,04,11,56,27.10
2009,06,04,11,57,27.10
2009,06,04,11,58,27.20
2009,06,04,11,59,27.20
2009,06,04,12,00,27.20
2009,06,04,12,01,27.10
2009,06,04,12,02,27.10
2009,06,04,12,03,27.20
2009,06,04,12,04,27.20
2009,06,04,12,05,27.30
2009,06,04,12,06,27.30
2009,06,04,12,07,27.40
2009,06,04,12,08,27.50
2009,06,04,12,09,27.60
2009,06,04,12,10,27.70
2009,06,04,12,11,27.80
2009,06,04,12,12,27.70
2009,06,04,12,13,27.80
2009,06,04,12,14,27.80
2009,06,04,12,15,27.80
2009,06,04,12,16,27.90
2009,06,04,12,17,27.80
2009,06,04,12,18,27.80
2009,06,04,12,19,27.90
2009,06,04,12,20,27.80
2009,06,04,12,21,27.70
2009,06,04,12,22,27.50
2009,06,04,12,23,27.40
2009,06,04,12,24,27.40
2009,06,04,12,25,27.40
2009,06,04,12,26,27.40
2009,06,04,12,27,27.30
2009,06,04,12,28,27.30
2009,06,04,12,29,27.30
2009,06,04,12,30,27.40
2009,06,04,12,31,27.40
2009,06,04,12,32,27.60
2009,06,04,12,33,27.60
2009,06,04,12,34,27.70
2009,06,04,12,35,27.70
2009,06,04,12,36,27.80
2009,06,04,12,37,27.90
2009,06,04,12,38,28.00
2009,06,04,12,39,28.00
2009,06,04,12,40,28.20
2009,06,04,12,41,28.20
2009,06,04,12,42,28.20
2009,06,04,12,43,28.20
2009,06,04,12,44,28.20
2009,06,04,12,45,28.20
2009,06,04,12,46,28.10
2009,06,04,12,47,28.20
2009,06,04,12,48,28.20
2009,06,04,12,49,28.30
2009,06,04,12,50,28.30
2009,06,04,12,51,28.20
2009,06,04,12,52,28.20
2009,06,04,12,53,28.30
2009,06,04,12,54,28.30
2009,06,04,12,55,28.40
2009,06,04,12,56,28.40
2009,06,04,12,57,28.30
2009,06,04,12,58,28.30
2009,06,04,12,59,28.40
2009,06,04,13,00,28.40
2009,06,04,13,01,28.50
2009,06,04,13,02,28.40
2009,06,04,13,03,28.40
2009,06,04,13,04,28.30
2009,06,04,13,05,28.30
2009,06,04,13,06,28.40
2009,06,04,13,07,28.40
2009,06,04,13,08,28.40
2009,06,04,13,09,28.20
2009,06,04,13,10,28.10
2009,06,04,13,11,28.10
2009,06,04,13,12,28.10
2009,06,04,13,13,28.10
2009,06,04,13,14,28.20
2009,06,04,13,15,28.30
2009,06,04,13,16,28.40
2009,06,04,13,17,28.60
2009,06,04,13,18,28.70
2009,06,04,13,19,28.80
2009,06,04,13,20,28.90
2009,06,04,13,21,28.90
2009,06,04,13,22,28.90
2009,06,04,13,23,28.90
2009,06,04,13,24,28.90
2009,06,04,13,25,28.90
2009,06,04,13,26,28.90
2009,06,04,13,27,28.80
2009,06,04,13,28,28.80
2009,06,04,13,29,28.80
2009,06,04,13,30,28.80
2009,06,04,13,31,28.80
2009,06,04,13,32,28.80
2009,06,04,13,33,28.70
2009,06,04,13,34,28.80
2009,06,04,13,35,28.70
2009,06,04,13,36,28.60
2009,06,04,13,37,28.50
2009,06,04,13,38,28.30
2009,06,04,13,39,28.20
2009,06,04,13,40,28.00
2009,06,04,13,41,28.00
2009,06,04,13,42,28.00
2009,06,04,13,43,28.00
2009,06,04,13,44,28.00
2009,06,04,13,45,28.00
2009,06,04,13,46,28.00
2009,06,04,13,47,28.00
2009,06,04,13,48,28.00
2009,06,04,13,49,28.10
2009,06,04,13,50,28.30
2009,06,04,13,51,28.40
2009,06,04,13,52,28.40
2009,06,04,13,53,28.40
2009,06,04,13,54,28.30
2009,06,04,13,55,28.30
2009,06,04,13,56,28.30
2009,06,04,13,57,28.20
2009,06,04,13,58,28.20
2009,06,04,13,59,28.20
2009,06,04,14,00,28.20
2009,06,04,14,01,28.30
2009,06,04,14,02,28.50
2009,06,04,14,03,28.60
2009,06,04,14,04,28.60
2009,06,04,14,05,28.60
2009,06,04,14,06,28.70
2009,06,04,14,07,28.80
2009,06,04,14,08,28.90
2009,06,04,14,09,29.00
2009,06,04,14,10,29.10
2009,06,04,14,11,29.10
2009,06,04,14,12,29.10
2009,06,04,14,13,28.90
2009,06,04,14,14,29.00
2009,06,04,14,15,28.90
2009,06,04,14,16,28.90
2009,06,04,14,17,28.90
2009,06,04,14,18,29.00
2009,06,04,14,19,29.10
2009,06,04,14,20,29.10
2009,06,04,14,21,29.10
2009,06,04,14,22,29.10
2009,06,04,14,23,29.10
2009,06,04,14,24,29.10
2009,06,04,14,25,28.90
2009,06,04,14,26,28.90
2009,06,04,14,27,28.90
2009,06,04,14,28,28.90
2009,06,04,14,29,28.90
2009,06,04,14,30,28.90
2009,06,04,14,31,28.90
2009,06,04,14,32,29.00
2009,06,04,14,33,29.10
2009,06,04,14,34,29.20
2009,06,04,14,35,29.10
2009,06,04,14,36,29.10
2009,06,04,14,37,29.10
2009,06,04,14,38,29.20
2009,06,04,14,39,29.30
2009,06,04,14,40,29.30
2009,06,04,14,41,29.40
2009,06,04,14,42,29.50
2009,06,04,14,43,29.50
2009,06,04,14,44,29.30
2009,06,04,14,45,29.30
2009,06,04,14,46,29.30
2009,06,04,14,47,29.20
2009,06,04,14,48,29.30
2009,06,04,14,49,29.30
2009,06,04,14,50,29.40
2009,06,04,14,51,29.50
2009,06,04,14,52,29.70
2009,06,04,14,53,29.70
2009,06,04,14,54,29.80
2009,06,04,14,55,29.70
2009,06,04,14,56,29.70
2009,06,04,14,57,29.70
2009,06,04,14,58,29.70
2009,06,04,14,59,29.70
2009,06,04,15,00,29.70
2009,06,04,15,01,29.80
2009,06,04,15,02,29.80
2009,06,04,15,03,29.80
2009,06,04,15,04,29.80
2009,06,04,15,05,29.80
2009,06,04,15,06,29.90
2009,06,04,15,07,29.90
2009,06,04,15,08,29.90
2009,06,04,15,09,29.90
2009,06,04,15,10,29.80
2009,06,04,15,11,29.70
2009,06,04,15,12,29.70
2009,06,04,15,13,29.70
2009,06,04,15,14,29.80
2009,06,04,15,15,29.90
2009,06,04,15,16,29.90
2009,06,04,15,17,29.80
2009,06,04,15,18,29.80
2009,06,04,15,19,29.80
2009,06,04,15,20,29.80
2009,06,04,15,21,29.80
2009,06,04,15,22,29.70
2009,06,04,15,23,29.70
2009,06,04,15,24,29.80
2009,06,04,15,25,29.80
2009,06,04,15,26,29.90
2009,06,04,15,27,29.90
2009,06,04,15,28,30.00
2009,06,04,15,29,30.10
2009,06,04,15,30,30.10
2009,06,04,15,31,30.20
2009,06,04,15,32,30.20
2009,06,04,15,33,30.20
2009,06,04,15,34,30.10
2009,06,04,15,35,30.00
2009,06,04,15,36,29.90
2009,06,04,15,37,29.90
2009,06,04,15,38,29.90
2009,06,04,15,39,29.90
2009,06,04,15,40,29.90
2009,06,04,15,41,29.90
2009,06,04,15,42,29.90
2009,06,04,15,43,29.90
2009,06,04,15,44,29.90
2009,06,04,15,45,29.90
2009,06,04,15,46,29.90
2009,06,04,15,47,30.10
2009,06,04,15,48,30.10
2009,06,04,15,49,30.00
2009,06,04,15,50,29.90
2009,06,04,15,51,29.90
2009,06,04,15,52,29.90
2009,06,04,15,53,29.90
2009,06,04,15,54,29.80
2009,06,04,15,55,29.80
2009,06,04,15,56,29.90
2009,06,04,15,57,29.90
2009,06,04,15,58,30.00
2009,06,04,15,59,30.10
2009,06,04,16,00,30.10
2009,06,04,16,01,30.10
2009,06,04,16,02,30.10
2009,06,04,16,03,30.10
2009,06,04,16,04,29.90
2009,06,04,16,05,29.90
2009,06,04,16,06,30.00
2009,06,04,16,07,30.10
2009,06,04,16,08,30.20
2009,06,04,16,09,30.20
2009,06,04,16,10,30.20
2009,06,04,16,11,30.20
2009,06,04,16,12,30.20
2009,06,04,16,13,30.20
2009,06,04,16,14,30.30
2009,06,04,16,15,30.30
2009,06,04,16,16,30.40
2009,06,04,16,17,30.40
2009,06,04,16,18,30.30
2009,06,04,16,19,30.30
2009,06,04,16,20,30.30
2009,06,04,16,21,30.30
2009,06,04,16,22,30.30
2009,06,04,16,23,30.40
2009,06,04,16,24,30.40
2009,06,04,16,25,30.40
2009,06,04,16,26,30.50
2009,06,04,16,27,30.60
2009,06,04,16,28,30.70
2009,06,04,16,29,30.70
2009,06,04,16,30,30.70
2009,06,04,16,31,30.70
2009,06,04,16,32,30.80
2009,06,04,16,33,30.90
2009,06,04,16,34,30.90
2009,06,04,16,35,30.80
2009,06,04,16,36,30.80
2009,06,04,16,37,30.80
2009,06,04,16,38,30.60
2009,06,04,16,39,30.50
2009,06,04,16,40,30.40
2009,06,04,16,41,30.40
2009,06,04,16,42,30.40
2009,06,04,16,43,30.40
2009,06,04,16,44,30.50
2009,06,04,16,45,30.60
2009,06,04,16,46,30.70
2009,06,04,16,47,30.70
2009,06,04,16,48,30.60
2009,06,04,16,49,30.50
2009,06,04,16,50,30.40
2009,06,04,16,51,30.30
2009,06,04,16,52,30.30
2009,06,04,16,53,30.30
2009,06,04,16,54,30.30
2009,06,04,16,55,30.30
2009,06,04,16,56,30.30
2009,06,04,16,57,30.30
2009,06,04,16,58,30.30
2009,06,04,16,59,30.30
2009,06,04,17,00,30.20
2009,06,04,17,01,30.20
2009,06,04,17,02,30.30
2009,06,04,17,03,30.30
2009,06,04,17,04,30.30
2009,06,04,17,05,30.30
2009,06,04,17,06,30.40
2009,06,04,17,07,30.30
2009,06,04,17,08,30.30
2009,06,04,17,09,30.30
2009,06,04,17,10,30.40
2009,06,04,17,11,30.40
2009,06,04,17,12,30.40
2009,06,04,17,13,30.40
2009,06,04,17,14,30.40
2009,06,04,17,15,30.40
2009,06,04,17,16,30.30
2009,06,04,17,17,30.30
2009,06,04,17,18,30.20
2009,06,04,17,19,30.20